Tracking 26940 objects as of 28-Jan-2023
HD Live streaming from Space Station
objects crossing your sky now

FLOCK 4P 1

Track FLOCK 4P 1 now!
10-day predictions
FLOCK 4P 1 is classified as:


NORAD ID: 44814
Int'l Code: 2019-081L
Perigee: 439.0 km
Apogee: 446.0 km
Inclination: 97.4 °
Period: 93.3 minutes
Semi major axis: 6813 km
RCS: Unknown
Launch date: November 27, 2019
Source: United States (US)
Launch site: SRIHARIKOTA (SRI)
Your satellite tracking list
Your tracking list is empty




NASA's NSSDC Master Catalog

Two Line Element Set (TLE):
1 44814U 19081L   23028.10635834  .00112466  00000-0  24664-2 0  9999
2 44814  97.3708  97.5005 0005112 145.4650 214.6931 15.43636904176288
Source of the keplerian elements: AFSPC